Location: *
(50.3194°N, 7.1067°E)
Time: 00:24:57
(UTC+00:00)

ARGOS - Pass Details

Date: 22 September 2019
Orbit: 821 x 834 km, 98.5° (Epoch: 19 October)

Event Time Altitude Azimuth Distance (km) Brightness Sun altitude
Exits shadow 19:39:17 19° 175° (S) 1,865 4.7 -20.6°
Maximum altitude 19:43:11 71° 257° (WSW) 876 3.3 -21.2°
Drops below altitude 10° 19:48:36 10° 342° (NNW) 2,445 6.2 -21.9°
Sets 19:50:59 0° 344° (NNW) 3,385 7.0 -22.3°
